[[{"header":{"parameterUnit":"m.s-1","parameterCategory":1,"la1":30.2991,"la2":30.254,"lo1":-89.0895,"lo2":-89.0444,"dy":0.0017,"dx":0.0017,"nx":28,"ny":28,"refTime":"2025-01-12T09:00:00:Z","depth":0,"parameterNumber":2,"parameterNumberName":"U-component_of_WINDS"},"data":[0,0,0,0,0,0,0,0,0,0,0,0,0,0,0,0,0,0,0,0,0,0,0,0,0,0,0,0,0,0,0,0,0,0,0,0,0,0,0,0,0,0,0,0,0,0,0,0,0,0,0,0,0,0,0,0,0,0,-4.8648,-4.8648,0,-4.8644,-4.8644,-4.8644,-4.8452,-4.8447,-4.8442,-4.8437,-4.8435,-4.8439,-4.8444,0,0,0,0,0,0,0,0,0,0,0,0,0,-4.849,-4.8493,-4.8648,-4.8648,-4.8648,-4.8644,-4.8644,-4.8644,-4.8453,-4.8447,-4.844,-4.8435,-4.8433,-4.8439,-4.8444,0,0,0,0,0,0,0,0,0,0,0,0,0,-4.853,-4.8495,-4.8648,-4.8552,-4.8543,-4.8644,-4.8644,-4.8644,-4.8454,-4.8446,-4.8439,-4.8432,-4.8432,-4.8438,-4.8445,-4.8639,0,0,-4.8466,-4.8469,0,0,0,0,0,0,0,0,-4.8528,-4.8536,-4.8566,-4.8558,-4.8549,-4.8541,-4.8587,-4.8642,-4.8456,-4.8488,-4.8437,-4.8428,-4.8476,-4.8479,-4.8495,-4.8638,-4.8638,-4.8467,-4.8471,-4.8474,-4.8476,0,0,0,0,0,0,0,-4.8525,-4.8535,-4.8646,-4.8567,-4.8556,-4.8509,-4.8506,-4.8597,-4.8524,-4.8484,-4.847,-4.8473,-4.847,-4.8489,-4.8494,-4.8638,-4.8467,-4.8473,-4.8477,-4.848,-4.894,-4.8948,0,0,0,0,0,0,-4.8535,-4.8534,-4.8646,-4.8646,-4.8519,-4.8518,-4.8515,-4.8551,-4.8523,-4.8511,-4.8479,-4.8464,-4.8481,-4.8486,-4.8493,-4.8717,-4.8474,-4.8481,-4.8485,-4.8932,-4.8942,-4.8951,0,0,0,0,0,0,-4.8533,-4.8547,-4.8646,-4.8586,-4.8595,-4.8529,-4.8571,-4.8555,-4.8573,-4.8519,-4.8505,-4.8511,-4.8475,-4.8483,-4.8604,-4.8714,-4.8484,-4.849,-4.8923,-4.8935,-4.8946,-4.9168,0,0,0,0,0,0,-4.8529,-4.8547,-4.862,-4.8589,-4.8599,-4.8758,-4.8577,-4.856,-4.8585,-4.8565,-4.8545,-4.8535,-4.847,-4.8594,-4.8611,-4.872,-4.8495,-4.8912,-4.8928,-4.8943,-4.9151,-4.9186,-4.9217,0,0,0,0,0,-4.8524,-4.8683,-4.8625,-4.8639,-4.8688,-4.8765,-4.877,-4.8692,-4.8595,-4.8668,-4.8633,-4.8535,-4.87,-4.8608,-4.8625,-4.8738,-4.8905,-4.8924,-4.8941,-4.9136,-4.9179,-4.9216,0,0,0,0,0,0,-4.8729,-4.8677,-4.8612,-4.8765,-4.8771,-4.8732,-4.8821,-4.874,-4.8773,-4.8753,-4.8655,-4.8652,-4.8788,-4.8775,-4.8674,-4.8924,-4.8785,-4.8808,-4.8928,-4.8968,-4.9001,-4.9001,-4.8501,0,0,0,0,0,-4.8792,-4.8858,-4.8809,-4.8949,-4.8955,-4.8889,-4.8918,-4.8857,-4.8859,-4.8861,-4.8834,-4.884,-4.8893,-4.893,-4.8975,-4.9148,-4.9141,-4.9234,-4.9267,-4.9294,-4.9315,-4.9406,-4.9446,-4.901,-4.901,-4.901,0,0,-4.8922,-4.8902,-4.895,-4.899,-4.8987,-4.9057,-4.8891,-4.8973,-4.9025,-4.8873,-4.8985,-4.8967,-4.8967,-4.9114,-4.9178,-4.9107,-4.9434,-4.9318,-4.934,-4.9345,-4.9429,-4.947,-4.9507,-4.9023,-4.902,-4.9018,0,0,-4.9197,-4.9189,-4.9304,-4.9305,-4.9302,-4.9257,-4.9285,-4.9258,-4.924,-4.9351,-4.9239,-4.9299,-4.9392,-4.9396,-4.9411,-4.9689,-4.96,-4.9706,-4.9879,-4.9969,-5.0003,-5.0033,-5.0132,-5.0169,-4.9727,-4.9727,-4.9728,0,-4.936,-4.9462,-4.9374,-4.9464,-4.9485,-4.935,-4.9467,-4.9472,-4.9485,-4.9503,-4.9423,-4.9537,-4.9528,-4.9675,-4.9743,-4.9759,-4.9788,-4.9708,-5.0005,-5.0034,-5.0061,-5.0155,-5.0192,-4.974,-4.9739,-4.9737,-4.9736,0,-4.9662,-4.9735,-4.9829,-4.9845,-4.9876,-4.9979,-4.9908,-4.995,-4.9887,-4.985,-4.9965,-4.9949,-4.9989,-5.0019,-4.9959,-5.0159,-5.0115,-5.0022,-4.9881,-5.0117,-5.0203,-5.0238,-4.9759,-4.9754,-4.975,-4.9747,0,0,-5.0066,-5.0032,-5.0068,-5.0073,-5.0061,-5.0115,-5.0213,-5.0251,-5.029,-5.0304,-5.0383,-5.0465,-5.0379,-5.0396,-5.0334,-5.0413,-5.0634,-5.031,-5.0309,-5.0371,-5.0854,-5.0924,-5.0967,-5.0576,-5.0582,-5.0587,-5.0854,0,-5.0331,-5.0495,-5.0419,-5.0591,-5.0657,-5.0531,-5.0615,-5.0618,-5.0586,-5.0638,-5.0602,-5.0663,-5.0544,-5.0554,-5.0626,-5.0592,-5.073,-5.0572,-5.0649,-5.0653,-5.0653,-5.1012,-5.1086,-5.1338,-5.0887,-5.0893,-5.0897,0,-5.0663,-5.069,-5.087,-5.0845,-5.087,-5.0948,-5.0977,-5.1028,-5.1028,-5.1,-5.1019,-5.094,-5.1033,-5.0894,-5.1022,-5.0917,-5.0944,-5.0932,-5.094,-5.0944,-5.0789,-5.1026,-5.1417,-5.1455,-5.0949,-5.0945,-5.0941,0,-5.094,-5.1021,-5.1139,-5.1147,-5.1122,-5.118,-5.1172,-5.1164,-5.1193,-5.1219,-5.1236,-5.1274,-5.1294,-5.1325,-5.1258,-5.1162,-5.1396,-5.1251,-5.1376,-5.1378,-5.143,-5.1428,-5.1832,-5.1449,-5.1448,-5.1447,-5.1447,0,-5.1244,-5.1359,-5.1262,-5.1335,-5.146,-5.1372,-5.1498,-5.1476,-5.1471,-5.1537,-5.143,-5.1495,-5.1402,-5.1458,-5.1406,-5.1521,-5.1531,-5.1511,-5.1496,-5.152,-5.1523,-5.1537,-5.1517,-5.1457,-5.1455,-5.1453,-5.1451,0,-5.1574,-5.1514,-5.1634,-5.16,-5.1595,-5.1688,-5.1659,-5.1725,-5.1686,-5.1772,-5.1787,-5.1726,-5.1786,-5.1722,-5.1778,-5.1743,-5.1898,-5.1857,-5.1898,-5.1886,-5.2015,-5.2004,-5.2441,-5.2494,-5.2078,-5.2082,-5.2085,0,-5.1772,-5.1857,-5.1833,-5.187,-5.1868,-5.1929,-5.1957,-5.1874,-5.1908,-5.1915,-5.1981,-5.2031,-5.2068,-5.217,-5.2131,-5.2174,-5.2133,-5.2283,-5.2138,-5.2161,-5.2135,-5.2131,-5.2139,-5.2313,-5.2318,-5.2322,-5.2325,0,-5.2131,-5.2097,-5.2142,-5.2177,-5.2214,-5.2238,-5.2253,-5.229,-5.2204,-5.2248,-5.2307,-5.2336,-5.2393,-5.2445,-5.2476,-5.2468,-5.2384,-5.2371,-5.2402,-5.2428,-5.2449,-5.2439,-5.1978,-5.2361,-5.2358,-5.2355,-5.2353,-5.2352,-5.24,-5.247,-5.2464,-5.2518,-5.2521,-5.2538,-5.2598,-5.2567,-5.2616,-5.2655,-5.2603,-5.2678,-5.2676,-5.2709,-5.2711,-5.2768,-5.2704,-5.275,-5.2761,-5.2773,-5.2792,-5.244,-5.2774,-5.2773,-5.2772,-5.2771,-5.277,0,-5.2753,-5.2743,-5.2793,-5.2818,-5.2861,-5.2777,-5.279,-5.2832,-5.2898,-5.2903,-5.2942,-5.3011,-5.3061,-5.3027,-5.307,-5.3122,-5.3085,-5.3136,-5.3131,-5.3131,-5.2847,-5.2816,-5.3166,-5.3166,-5.3166,-5.3166,-5.3166,-5.3166,-5.2942,-5.3055,-5.3021,-5.3136,-5.3124,-5.3196,-5.3211,-5.3227,-5.323,-5.3313,-5.3354,-5.3331,-5.332,-5.3361,-5.3404,-5.3393,-5.3413,-5.3479,-5.3455,-5.319,-5.3151,-5.3114,-5.3084,-5.3485,-5.3485,-5.3733,-5.3735,-5.3737]},{"header":{"parameterUnit":"m.s-1","parameterCategory":1,"la1":30.2991,"la2":30.254,"lo1":-89.0895,"lo2":-89.0444,"dy":0.0017,"dx":0.0017,"nx":28,"ny":28,"refTime":"2025-01-12T09:00:00:Z","depth":0,"parameterNumber":3,"parameterNumberName":"V-component_of_WINDS"},"data":[0,0,0,0,0,0,0,0,0,0,0,0,0,0,0,0,0,0,0,0,0,0,0,0,0,0,0,0,0,0,0,0,0,0,0,0,0,0,0,0,0,0,0,0,0,0,0,0,0,0,0,0,0,0,0,0,0,0,-1.2863,-1.2863,0,-1.287,-1.287,-1.287,-1.2879,-1.2879,-1.2879,-1.2879,-1.2886,-1.2886,-1.2886,0,0,0,0,0,0,0,0,0,0,0,0,0,-1.2855,-1.2855,-1.2863,-1.2863,-1.2863,-1.287,-1.287,-1.287,-1.2879,-1.2879,-1.2879,-1.2879,-1.2885,-1.2886,-1.2886,0,0,0,0,0,0,0,0,0,0,0,0,0,-1.286,-1.2855,-1.2863,-1.2868,-1.2869,-1.287,-1.287,-1.287,-1.2879,-1.2879,-1.2879,-1.2879,-1.2885,-1.2886,-1.2886,-1.2881,0,0,-1.2886,-1.2886,0,0,0,0,0,0,0,0,-1.2859,-1.286,-1.2868,-1.2868,-1.2869,-1.2874,-1.2869,-1.2874,-1.2879,-1.2875,-1.2879,-1.288,-1.2881,-1.2882,-1.2883,-1.2882,-1.2882,-1.2886,-1.2886,-1.2886,-1.2886,0,0,0,0,0,0,0,-1.2859,-1.286,-1.2866,-1.2868,-1.2868,-1.2869,-1.287,-1.287,-1.2877,-1.2875,-1.2876,-1.2877,-1.2882,-1.2882,-1.2883,-1.2882,-1.2886,-1.2886,-1.2886,-1.2886,-1.2875,-1.2874,0,0,0,0,0,0,-1.2858,-1.2859,-1.2865,-1.2866,-1.2864,-1.2869,-1.2871,-1.2872,-1.2877,-1.2878,-1.2877,-1.2877,-1.2882,-1.2883,-1.2883,-1.2876,-1.2886,-1.2886,-1.2886,-1.2875,-1.2875,-1.2874,0,0,0,0,0,0,-1.2858,-1.2859,-1.2865,-1.2863,-1.2864,-1.2869,-1.2871,-1.2872,-1.2873,-1.2878,-1.2879,-1.2876,-1.2882,-1.2883,-1.2881,-1.2877,-1.2886,-1.2886,-1.2875,-1.2875,-1.2875,-1.2864,0,0,0,0,0,0,-1.2858,-1.2858,-1.2858,-1.2863,-1.2864,-1.2864,-1.2871,-1.2872,-1.2873,-1.2874,-1.2878,-1.2879,-1.2883,-1.2881,-1.2881,-1.2877,-1.2886,-1.2876,-1.2875,-1.2875,-1.2865,-1.2863,-1.2862,0,0,0,0,0,-1.2857,-1.2855,-1.2858,-1.2859,-1.2863,-1.2864,-1.2864,-1.2869,-1.2873,-1.2871,-1.2874,-1.2879,-1.2877,-1.2881,-1.2881,-1.2877,-1.2876,-1.2875,-1.2875,-1.2866,-1.2864,-1.2862,0,0,0,0,0,0,-1.285,-1.2856,-1.2859,-1.2859,-1.2861,-1.2865,-1.2864,-1.2868,-1.2869,-1.2869,-1.2875,-1.2876,-1.2872,-1.2875,-1.2878,-1.2871,-1.2877,-1.2876,-1.287,-1.2868,-1.2867,-1.2866,-1.2886,0,0,0,0,0,-1.2849,-1.2849,-1.2854,-1.2853,-1.2854,-1.2859,-1.2859,-1.2862,-1.2865,-1.2866,-1.2868,-1.287,-1.2869,-1.2869,-1.2869,-1.2865,-1.2865,-1.2862,-1.2861,-1.286,-1.2859,-1.2854,-1.2852,-1.2872,-1.2872,-1.2872,0,0,-1.2846,-1.2849,-1.2849,-1.2852,-1.2854,-1.2853,-1.2859,-1.2859,-1.2858,-1.2865,-1.2863,-1.2865,-1.2867,-1.2863,-1.2862,-1.2865,-1.2853,-1.2859,-1.2858,-1.2858,-1.2853,-1.2851,-1.2849,-1.2872,-1.2872,-1.2872,0,0,-1.2839,-1.2842,-1.2841,-1.2842,-1.2844,-1.2847,-1.2846,-1.285,-1.2851,-1.2849,-1.2854,-1.2852,-1.2852,-1.2852,-1.2852,-1.2842,-1.2846,-1.2842,-1.2835,-1.283,-1.2828,-1.2827,-1.2821,-1.282,-1.2842,-1.2842,-1.2842,0,-1.2835,-1.2835,-1.2839,-1.2838,-1.2838,-1.2844,-1.2841,-1.2842,-1.2844,-1.2843,-1.2847,-1.2845,-1.2847,-1.2842,-1.2839,-1.2839,-1.2837,-1.2842,-1.2828,-1.2827,-1.2826,-1.282,-1.2818,-1.2841,-1.2841,-1.2841,-1.2841,0,-1.2828,-1.2827,-1.2825,-1.2827,-1.2826,-1.2824,-1.2827,-1.2827,-1.2829,-1.2831,-1.2827,-1.2829,-1.2828,-1.2827,-1.2831,-1.2822,-1.2823,-1.2828,-1.2833,-1.2823,-1.2818,-1.2816,-1.284,-1.284,-1.2841,-1.2841,0,0,-1.2819,-1.2821,-1.282,-1.2819,-1.2821,-1.282,-1.2817,-1.2816,-1.2814,-1.2814,-1.2811,-1.2809,-1.2812,-1.2812,-1.2815,-1.2811,-1.2799,-1.2815,-1.2815,-1.281,-1.2787,-1.2783,-1.2781,-1.2802,-1.2801,-1.2801,-1.2786,0,-1.2812,-1.2807,-1.281,-1.2805,-1.2802,-1.2806,-1.2803,-1.2803,-1.2804,-1.2801,-1.2802,-1.28,-1.2805,-1.2805,-1.2801,-1.2802,-1.2795,-1.2803,-1.2797,-1.2797,-1.2795,-1.2778,-1.2775,-1.2761,-1.2785,-1.2784,-1.2784,0,-1.2804,-1.2803,-1.2797,-1.2795,-1.2795,-1.2792,-1.279,-1.2788,-1.2787,-1.2787,-1.2786,-1.2788,-1.2783,-1.2789,-1.2782,-1.2787,-1.2785,-1.2784,-1.2784,-1.2782,-1.2789,-1.2775,-1.2757,-1.2754,-1.2781,-1.2782,-1.2782,0,-1.2796,-1.2793,-1.2788,-1.2787,-1.2787,-1.2784,-1.2783,-1.2783,-1.2781,-1.2778,-1.2776,-1.2774,-1.2772,-1.2769,-1.277,-1.2775,-1.2761,-1.2768,-1.276,-1.276,-1.2757,-1.2757,-1.2736,-1.2757,-1.2757,-1.2757,-1.2757,0,-1.2787,-1.2783,-1.2784,-1.2781,-1.2775,-1.2777,-1.2771,-1.2771,-1.2769,-1.2765,-1.2769,-1.2764,-1.2767,-1.2762,-1.2763,-1.2755,-1.2754,-1.2754,-1.2754,-1.2753,-1.2752,-1.275,-1.2751,-1.2757,-1.2757,-1.2757,-1.2757,0,-1.2777,-1.2778,-1.2773,-1.2771,-1.2771,-1.2766,-1.2765,-1.2761,-1.2761,-1.2755,-1.2754,-1.2754,-1.2749,-1.2749,-1.2744,-1.2744,-1.2733,-1.2735,-1.2733,-1.2733,-1.2725,-1.2725,-1.2701,-1.2697,-1.2722,-1.2722,-1.2722,0,-1.2772,-1.2768,-1.2765,-1.2762,-1.2761,-1.2757,-1.2754,-1.2756,-1.2753,-1.2749,-1.2745,-1.2739,-1.2735,-1.2726,-1.2725,-1.2719,-1.272,-1.2712,-1.272,-1.2718,-1.2718,-1.2717,-1.2716,-1.2711,-1.271,-1.271,-1.271,0,-1.276,-1.276,-1.2756,-1.2751,-1.2748,-1.2745,-1.2741,-1.2739,-1.2739,-1.2735,-1.2729,-1.2725,-1.2718,-1.2712,-1.2706,-1.2704,-1.2706,-1.2707,-1.2705,-1.2703,-1.2702,-1.27,-1.2728,-1.2708,-1.2708,-1.2708,-1.2708,-1.2709,-1.2751,-1.2747,-1.2744,-1.2738,-1.2736,-1.2732,-1.2727,-1.2725,-1.272,-1.2714,-1.2715,-1.2707,-1.2703,-1.2695,-1.2693,-1.2686,-1.2689,-1.2686,-1.2685,-1.2684,-1.2682,-1.2703,-1.2685,-1.2685,-1.2685,-1.2685,-1.2686,0,-1.2739,-1.2736,-1.2731,-1.2725,-1.272,-1.2722,-1.2718,-1.2713,-1.2706,-1.2702,-1.2697,-1.2688,-1.2681,-1.2679,-1.2671,-1.2666,-1.2667,-1.2664,-1.2664,-1.2663,-1.2681,-1.2683,-1.2664,-1.2664,-1.2664,-1.2664,-1.2664,-1.2664,-1.2732,-1.2724,-1.2722,-1.2712,-1.2709,-1.2701,-1.2698,-1.2693,-1.269,-1.2679,-1.2673,-1.2671,-1.2667,-1.2659,-1.2652,-1.2651,-1.2647,-1.2644,-1.2643,-1.266,-1.2662,-1.2664,-1.2666,-1.2643,-1.2643,-1.2625,-1.2625,-1.2625]}]]